User: anonymous   Login
Location: Scultetus-Sternwarte G�rlitz
(51.1356°N, 14.9514°E)
Time: 03:20:13
(UTC+02:00)
Language:

Iridium 3 - Orbit

View from above orbital plane
View from above orbital plane
View from above satellite
View from above satellite

Ground track
Ground track

The orbit data is extracted from the following two-line orbital elements,

1 25431U 98048A   16145.32372657  .00000231  00000-0  75518-4 0  9992
2 25431  86.3987  58.2764 0002178  88.1753  56.7223 14.34217041929877
Epoch (UTC): 24 May 2016 07:46:09
Eccentricity: 0.0002178
inclination: 86.3987°
perigee height: 776 km
apogee height: 779 km
right ascension of ascending node: 58.2764°
argument of perigee: 88.1753°
revolutions per day: 14.34217041
mean anomaly at epoch: 56.7223°
orbit number at epoch: 92987

The dashed part of the orbit path shows where the satellite is in the earth's shadow,  

DLR